Time,TemperatureF,DewpointF,PressureIn,WindDirection,WindDirectionDegrees,WindSpeedMPH,WindSpeedGustMPH,Humidity,HourlyPrecipIn,Conditions,Clouds,dailyrainin,SoftwareType,DateUTC
2013-03-05 00:00:00,23.5,19.7,30.10,WSW,252,0.0,0.0,85,0.00,,,0.00,WeatherCatV1.10B1784,2013-03-05 05:00:00,
2013-03-05 00:05:00,23.5,19.7,30.10,WSW,251,0.0,0.0,85,0.00,,,0.00,WeatherCatV1.10B1784,2013-03-05 05:05:00,
2013-03-05 00:10:00,23.5,19.7,30.10,WSW,252,0.0,0.0,85,0.00,,,0.00,WeatherCatV1.10B1784,2013-03-05 05:10:00,
2013-03-05 00:15:00,23.4,19.8,30.10,WSW,252,0.0,0.0,86,0.00,,,0.00,WeatherCatV1.10B1784,2013-03-05 05:15:00,
2013-03-05 00:20:00,23.3,19.7,30.10,WSW,252,0.0,1.0,86,0.00,,,0.00,WeatherCatV1.10B1784,2013-03-05 05:20:00,
2013-03-05 00:25:00,23.1,19.3,30.11,WSW,252,0.0,0.0,85,0.00,,,0.00,WeatherCatV1.10B1784,2013-03-05 05:25:00,
2013-03-05 00:30:00,22.9,19.1,30.11,WSW,252,0.0,0.0,85,0.00,,,0.00,WeatherCatV1.10B1784,2013-03-05 05:30:00,
2013-03-05 00:35:00,22.6,19.1,30.11,WSW,251,0.0,0.0,86,0.00,,,0.00,WeatherCatV1.10B1784,2013-03-05 05:35:00,
2013-03-05 00:40:00,22.6,19.1,30.11,WSW,252,0.0,0.0,86,0.00,,,0.00,WeatherCatV1.10B1784,2013-03-05 05:40:00,
2013-03-05 00:45:00,22.4,19.1,30.11,WSW,252,0.0,0.0,87,0.00,,,0.00,WeatherCatV1.10B1784,2013-03-05 05:45:00,
2013-03-05 00:50:00,22.1,18.8,30.11,WSW,252,0.0,0.0,87,0.00,,,0.00,WeatherCatV1.10B1784,2013-03-05 05:50:00,
2013-03-05 00:55:00,21.9,18.6,30.11,WSW,252,0.0,0.0,87,0.00,,,0.00,WeatherCatV1.10B1784,2013-03-05 05:55:00,
2013-03-05 01:00:00,21.5,18.2,30.11,WSW,252,0.0,0.0,87,0.00,,,0.00,WeatherCatV1.10B1784,2013-03-05 06:00:00,
2013-03-05 01:05:00,21.2,17.9,30.11,WSW,252,0.0,0.0,87,0.00,,,0.00,WeatherCatV1.10B1784,2013-03-05 06:05:00,
2013-03-05 01:10:00,21.1,18.1,30.11,WSW,252,0.0,1.0,88,0.00,,,0.00,WeatherCatV1.10B1784,2013-03-05 06:10:00,
2013-03-05 01:15:00,21.4,18.4,30.11,WSW,252,0.0,0.0,88,0.00,,,0.00,WeatherCatV1.10B1784,2013-03-05 06:15:00,
2013-03-05 01:20:00,21.5,18.5,30.11,WSW,252,1.0,1.0,88,0.00,,,0.00,WeatherCatV1.10B1784,2013-03-05 06:20:00,
2013-03-05 01:25:00,21.7,18.4,30.12,WSW,252,0.0,1.0,87,0.00,,,0.00,WeatherCatV1.10B1784,2013-03-05 06:25:00,
2013-03-05 01:30:00,22.3,19.0,30.12,WSW,256,0.0,1.0,87,0.00,,,0.00,WeatherCatV1.10B1784,2013-03-05 06:30:00,
2013-03-05 01:35:00,22.7,19.2,30.12,West,263,0.0,0.0,86,0.00,,,0.00,WeatherCatV1.10B1784,2013-03-05 06:35:00,
2013-03-05 01:40:00,22.7,18.6,30.12,West,262,0.0,1.0,84,0.00,,,0.00,WeatherCatV1.10B1784,2013-03-05 06:40:00,
2013-03-05 01:45:00,22.5,18.4,30.12,West,263,0.0,0.0,84,0.00,,,0.00,WeatherCatV1.10B1784,2013-03-05 06:45:00,
2013-03-05 01:50:00,22.2,18.1,30.12,WSW,250,1.0,1.0,84,0.00,,,0.00,WeatherCatV1.10B1784,2013-03-05 06:50:00,
2013-03-05 01:55:00,21.9,18.4,30.12,WSW,250,0.0,0.0,86,0.00,,,0.00,WeatherCatV1.10B1784,2013-03-05 06:55:00,
2013-03-05 02:00:00,21.9,18.4,30.12,WSW,250,0.0,0.0,86,0.00,,,0.00,WeatherCatV1.10B1784,2013-03-05 07:00:00,
2013-03-05 02:05:00,21.6,18.1,30.12,WSW,250,0.0,0.0,86,0.00,,,0.00,WeatherCatV1.10B1784,2013-03-05 07:05:00,
2013-03-05 02:10:00,21.3,18.0,30.12,WSW,250,0.0,0.0,87,0.00,,,0.00,WeatherCatV1.10B1784,2013-03-05 07:10:00,
2013-03-05 02:15:00,21.2,17.9,30.12,WSW,250,0.0,0.0,87,0.00,,,0.00,WeatherCatV1.10B1784,2013-03-05 07:15:00,
2013-03-05 02:20:00,21.1,18.1,30.12,WSW,250,0.0,0.0,88,0.00,,,0.00,WeatherCatV1.10B1784,2013-03-05 07:20:00,
2013-03-05 02:25:00,20.7,17.5,30.12,WSW,250,0.0,0.0,87,0.00,,,0.00,WeatherCatV1.10B1784,2013-03-05 07:25:00,
2013-03-05 02:30:00,20.3,17.1,30.12,WSW,250,0.0,0.0,87,0.00,,,0.00,WeatherCatV1.10B1784,2013-03-05 07:30:00,
2013-03-05 02:35:00,20.1,17.1,30.11,WSW,250,0.0,0.0,88,0.00,,,0.00,WeatherCatV1.10B1784,2013-03-05 07:35:00,
2013-03-05 02:40:00,19.8,16.8,30.11,WSW,250,0.0,0.0,88,0.00,,,0.00,WeatherCatV1.10B1784,2013-03-05 07:40:00,
2013-03-05 02:45:00,19.3,16.3,30.11,WSW,250,0.0,0.0,88,0.00,,,0.00,WeatherCatV1.10B1784,2013-03-05 07:45:00,
2013-03-05 02:50:00,18.8,15.8,30.11,WSW,250,0.0,0.0,88,0.00,,,0.00,WeatherCatV1.10B1784,2013-03-05 07:50:00,
2013-03-05 02:55:00,18.3,15.6,30.11,WSW,250,0.0,0.0,89,0.00,,,0.00,WeatherCatV1.10B1784,2013-03-05 07:55:00,
2013-03-05 03:00:00,17.9,15.2,30.11,WSW,250,0.0,0.0,89,0.00,,,0.00,WeatherCatV1.10B1784,2013-03-05 08:00:00,
2013-03-05 03:05:00,18.2,16.0,30.11,WSW,250,0.0,0.0,91,0.00,,,0.00,WeatherCatV1.10B1784,2013-03-05 08:05:00,
2013-03-05 03:10:00,18.6,16.7,30.11,WSW,250,0.0,0.0,92,0.00,,,0.00,WeatherCatV1.10B1784,2013-03-05 08:10:00,
2013-03-05 03:15:00,19.0,17.1,30.11,WSW,250,0.0,0.0,92,0.00,,,0.00,WeatherCatV1.10B1784,2013-03-05 08:15:00,
2013-03-05 03:20:00,19.3,17.4,30.11,WSW,250,0.0,0.0,92,0.00,,,0.00,WeatherCatV1.10B1784,2013-03-05 08:20:00,
2013-03-05 03:25:00,19.4,17.2,30.11,WSW,250,0.0,0.0,91,0.00,,,0.00,WeatherCatV1.10B1784,2013-03-05 08:25:00,
2013-03-05 03:30:00,19.3,17.1,30.11,WSW,250,0.0,0.0,91,0.00,,,0.00,WeatherCatV1.10B1784,2013-03-05 08:30:00,
2013-03-05 03:35:00,19.1,16.9,30.11,WSW,250,0.0,0.0,91,0.00,,,0.00,WeatherCatV1.10B1784,2013-03-05 08:35:00,
2013-03-05 03:40:00,19.1,16.9,30.11,WSW,250,0.0,0.0,91,0.00,,,0.00,WeatherCatV1.10B1784,2013-03-05 08:40:00,
2013-03-05 03:42:00,18.9,16.7,30.11,WSW,250,0.0,0.0,91,0.00,,,0.00,WeatherCatV1.10B1784,2013-03-05 08:42:00,
2013-03-05 03:47:00,18.8,16.6,30.11,NNW,345,1.0,1.0,91,0.00,,,0.00,WeatherCatV1.10B1784,2013-03-05 08:47:00,
2013-03-05 03:52:00,18.8,16.6,30.11,NNW,344,0.0,0.0,91,0.00,,,0.00,WeatherCatV1.10B1784,2013-03-05 08:52:00,
2013-03-05 03:57:00,18.7,16.5,30.10,NNW,344,0.0,0.0,91,0.00,,,0.00,WeatherCatV1.10B1784,2013-03-05 08:57:00,
2013-03-05 04:02:00,18.2,15.8,30.10,NNW,344,0.0,0.0,90,0.00,,,0.00,WeatherCatV1.10B1784,2013-03-05 09:02:00,
2013-03-05 04:07:00,18.3,16.1,30.10,NE,43,3.0,3.0,91,0.00,,,0.00,WeatherCatV1.10B1784,2013-03-05 09:07:00,
2013-03-05 04:12:00,18.4,16.5,30.10,ENE,70,0.0,1.0,92,0.00,,,0.00,WeatherCatV1.10B1784,2013-03-05 09:12:00,
2013-03-05 04:17:00,18.3,16.1,30.10,South,174,0.0,1.0,91,0.00,,,0.00,WeatherCatV1.10B1784,2013-03-05 09:17:00,
2013-03-05 04:22:00,18.1,15.9,30.10,South,174,0.0,0.0,91,0.00,,,0.00,WeatherCatV1.10B1784,2013-03-05 09:22:00,
2013-03-05 04:27:00,17.9,16.0,30.10,SW,228,0.0,0.0,92,0.00,,,0.00,WeatherCatV1.10B1784,2013-03-05 09:27:00,
2013-03-05 04:32:00,17.9,16.0,30.10,SW,228,0.0,0.0,92,0.00,,,0.00,WeatherCatV1.10B1784,2013-03-05 09:32:00,
2013-03-05 04:37:00,18.1,16.2,30.10,NNW,340,0.0,1.0,92,0.00,,,0.00,WeatherCatV1.10B1784,2013-03-05 09:37:00,
2013-03-05 04:42:00,18.1,16.2,30.10,NNW,340,0.0,0.0,92,0.00,,,0.00,WeatherCatV1.10B1784,2013-03-05 09:42:00,
2013-03-05 04:47:00,18.0,16.1,30.10,NNW,338,0.0,0.0,92,0.00,,,0.00,WeatherCatV1.10B1784,2013-03-05 09:47:00,
2013-03-05 04:52:00,18.1,16.2,30.10,North,6,0.0,1.0,92,0.00,,,0.00,WeatherCatV1.10B1784,2013-03-05 09:52:00,
2013-03-05 04:57:00,18.2,16.3,30.10,NNE,32,0.0,0.0,92,0.00,,,0.00,WeatherCatV1.10B1784,2013-03-05 09:57:00,
2013-03-05 05:02:00,18.5,16.6,30.10,NW,311,0.0,0.0,92,0.00,,,0.00,WeatherCatV1.10B1784,2013-03-05 10:02:00,
2013-03-05 05:07:00,18.8,16.9,30.11,NE,45,0.0,0.0,92,0.00,,,0.00,WeatherCatV1.10B1784,2013-03-05 10:07:00,
2013-03-05 05:12:00,18.5,16.3,30.11,NE,46,0.0,0.0,91,0.00,,,0.00,WeatherCatV1.10B1784,2013-03-05 10:12:00,
2013-03-05 05:17:00,18.1,15.9,30.11,NE,45,0.0,0.0,91,0.00,,,0.00,WeatherCatV1.10B1784,2013-03-05 10:17:00,
2013-03-05 05:22:00,17.8,15.6,30.11,NE,46,0.0,0.0,91,0.00,,,0.00,WeatherCatV1.10B1784,2013-03-05 10:22:00,
2013-03-05 05:27:00,17.6,15.4,30.11,NE,45,0.0,0.0,91,0.00,,,0.00,WeatherCatV1.10B1784,2013-03-05 10:27:00,
2013-03-05 05:32:00,17.3,15.1,30.11,NE,46,0.0,0.0,91,0.00,,,0.00,WeatherCatV1.10B1784,2013-03-05 10:32:00,
2013-03-05 05:37:00,17.4,15.5,30.11,NE,45,0.0,0.0,92,0.00,,,0.00,WeatherCatV1.10B1784,2013-03-05 10:37:00,
2013-03-05 05:42:00,17.6,15.7,30.11,NE,46,0.0,0.0,92,0.00,,,0.00,WeatherCatV1.10B1784,2013-03-05 10:42:00,
2013-03-05 05:47:00,17.9,16.0,30.10,NE,44,0.0,0.0,92,0.00,,,0.00,WeatherCatV1.10B1784,2013-03-05 10:47:00,
2013-03-05 05:52:00,18.0,16.1,30.10,NE,44,0.0,0.0,92,0.00,,,0.00,WeatherCatV1.10B1784,2013-03-05 10:52:00,
2013-03-05 05:57:00,17.8,15.6,30.10,NE,44,0.0,1.0,91,0.00,,,0.00,WeatherCatV1.10B1784,2013-03-05 10:57:00,
2013-03-05 06:02:00,17.3,15.1,30.11,NE,44,0.0,0.0,91,0.00,,,0.00,WeatherCatV1.10B1784,2013-03-05 11:02:00,
2013-03-05 06:07:00,17.4,15.5,30.10,NE,44,0.0,1.0,92,0.00,,,0.00,WeatherCatV1.10B1784,2013-03-05 11:07:00,
2013-03-05 06:12:00,17.7,15.8,30.10,NE,51,0.0,1.0,92,0.00,,,0.00,WeatherCatV1.10B1784,2013-03-05 11:12:00,
2013-03-05 06:17:00,17.8,15.9,30.10,NE,52,0.0,1.0,92,0.00,,,0.00,WeatherCatV1.10B1784,2013-03-05 11:17:00,
2013-03-05 06:22:00,17.9,16.0,30.10,East,87,1.0,1.0,92,0.00,,,0.00,WeatherCatV1.10B1784,2013-03-05 11:22:00,
2013-03-05 06:27:00,18.1,16.2,30.10,ENE,63,0.0,2.0,92,0.00,,,0.00,WeatherCatV1.10B1784,2013-03-05 11:27:00,
2013-03-05 06:32:00,18.1,15.9,30.10,East,85,0.0,1.0,91,0.00,,,0.00,WeatherCatV1.10B1784,2013-03-05 11:32:00,
2013-03-05 06:37:00,18.1,15.9,30.10,East,84,0.0,0.0,91,0.00,,,0.00,WeatherCatV1.10B1784,2013-03-05 11:37:00,
2013-03-05 06:42:00,18.0,15.8,30.10,East,84,0.0,0.0,91,0.00,,,0.00,WeatherCatV1.10B1784,2013-03-05 11:42:00,
2013-03-05 06:47:00,18.1,15.9,30.10,East,85,0.0,0.0,91,0.00,,,0.00,WeatherCatV1.10B1784,2013-03-05 11:47:00,
2013-03-05 06:52:00,18.1,15.9,30.10,East,85,0.0,0.0,91,0.00,,,0.00,WeatherCatV1.10B1784,2013-03-05 11:52:00,
2013-03-05 06:57:00,17.9,15.7,30.10,East,85,0.0,0.0,91,0.00,,,0.00,WeatherCatV1.10B1784,2013-03-05 11:57:00,
2013-03-05 07:02:00,17.6,15.2,30.10,East,85,0.0,0.0,90,0.00,,,0.00,WeatherCatV1.10B1784,2013-03-05 12:02:00,
2013-03-05 07:07:00,17.7,15.5,30.10,East,85,0.0,0.0,91,0.00,,,0.00,WeatherCatV1.10B1784,2013-03-05 12:07:00,
2013-03-05 07:12:00,17.8,15.6,30.10,SSW,205,0.0,0.0,91,0.00,,,0.00,WeatherCatV1.10B1784,2013-03-05 12:12:00,
2013-03-05 07:17:00,18.3,16.1,30.10,SSW,206,0.0,0.0,91,0.00,,,0.00,WeatherCatV1.10B1784,2013-03-05 12:17:00,
2013-03-05 07:22:00,19.0,17.1,30.10,SE,139,0.0,0.0,92,0.00,,,0.00,WeatherCatV1.10B1784,2013-03-05 12:22:00,
2013-03-05 07:27:00,19.5,17.3,30.09,ENE,72,0.0,1.0,91,0.00,,,0.00,WeatherCatV1.10B1784,2013-03-05 12:27:00,
2013-03-05 07:32:00,19.9,17.5,30.09,East,101,0.0,0.0,90,0.00,,,0.00,WeatherCatV1.10B1784,2013-03-05 12:32:00,
2013-03-05 07:37:00,20.2,17.5,30.09,NE,51,0.0,2.0,89,0.00,,,0.00,WeatherCatV1.10B1784,2013-03-05 12:37:00,
2013-03-05 07:42:00,20.6,17.9,30.09,East,82,0.0,1.0,89,0.00,,,0.00,WeatherCatV1.10B1784,2013-03-05 12:42:00,
2013-03-05 07:47:00,20.8,17.8,30.09,East,85,0.0,2.0,88,0.00,,,0.00,WeatherCatV1.10B1784,2013-03-05 12:47:00,
2013-03-05 07:52:00,21.0,18.0,30.09,East,84,1.0,2.0,88,0.00,,,0.00,WeatherCatV1.10B1784,2013-03-05 12:52:00,
2013-03-05 07:57:00,21.2,17.9,30.09,ESE,102,2.0,2.0,87,0.00,,,0.00,WeatherCatV1.10B1784,2013-03-05 12:57:00,
2013-03-05 08:02:00,21.3,18.0,30.09,East,83,4.0,5.0,87,0.00,,,0.00,WeatherCatV1.10B1784,2013-03-05 13:02:00,
2013-03-05 08:07:00,21.2,17.7,30.09,NE,52,3.0,5.0,86,0.00,,,0.00,WeatherCatV1.10B1784,2013-03-05 13:07:00,
2013-03-05 08:12:00,21.4,17.9,30.09,ENE,72,4.0,6.0,86,0.00,,,0.00,WeatherCatV1.10B1784,2013-03-05 13:12:00,
2013-03-05 08:17:00,21.6,18.1,30.09,ENE,68,5.0,6.0,86,0.00,,,0.00,WeatherCatV1.10B1784,2013-03-05 13:17:00,
2013-03-05 08:22:00,21.6,17.8,30.09,East,101,3.0,5.0,85,0.00,,,0.00,WeatherCatV1.10B1784,2013-03-05 13:22:00,
2013-03-05 08:27:00,21.7,18.2,30.09,East,91,4.0,5.0,86,0.00,,,0.00,WeatherCatV1.10B1784,2013-03-05 13:27:00,
2013-03-05 08:32:00,22.0,18.2,30.09,East,96,1.0,4.0,85,0.00,,,0.00,WeatherCatV1.10B1784,2013-03-05 13:32:00,
2013-03-05 08:37:00,22.3,18.5,30.09,ESE,105,4.0,5.0,85,0.00,,,0.00,WeatherCatV1.10B1784,2013-03-05 13:37:00,
2013-03-05 08:42:00,22.6,18.8,30.09,ENE,75,4.0,4.0,85,0.00,,,0.00,WeatherCatV1.10B1784,2013-03-05 13:42:00,
2013-03-05 08:47:00,22.7,18.6,30.09,ESE,116,4.0,6.0,84,0.00,,,0.00,WeatherCatV1.10B1784,2013-03-05 13:47:00,
2013-03-05 08:52:00,22.7,18.6,30.09,ENE,66,1.0,5.0,84,0.00,,,0.00,WeatherCatV1.10B1784,2013-03-05 13:52:00,
2013-03-05 08:57:00,22.9,18.8,30.09,ESE,109,4.0,5.0,84,0.00,,,0.00,WeatherCatV1.10B1784,2013-03-05 13:57:00,
2013-03-05 09:02:00,23.3,19.2,30.08,ESE,113,4.0,6.0,84,0.00,,,0.00,WeatherCatV1.10B1784,2013-03-05 14:02:00,
2013-03-05 09:07:00,23.5,19.4,30.08,ENE,75,4.0,6.0,84,0.00,,,0.00,WeatherCatV1.10B1784,2013-03-05 14:07:00,
2013-03-05 09:12:00,23.5,19.1,30.08,ESE,113,4.0,5.0,83,0.00,,,0.00,WeatherCatV1.10B1784,2013-03-05 14:12:00,
2013-03-05 09:17:00,23.9,19.5,30.08,ESE,116,0.0,1.0,83,0.00,,,0.00,WeatherCatV1.10B1784,2013-03-05 14:17:00,
2013-03-05 09:22:00,24.5,20.1,30.08,ENE,72,2.0,6.0,83,0.00,,,0.00,WeatherCatV1.10B1784,2013-03-05 14:22:00,
2013-03-05 09:27:00,24.4,19.4,30.08,SE,145,1.0,3.0,81,0.00,,,0.00,WeatherCatV1.10B1784,2013-03-05 14:27:00,
2013-03-05 09:32:00,24.9,19.6,30.08,NE,51,5.0,6.0,80,0.00,,,0.00,WeatherCatV1.10B1784,2013-03-05 14:32:00,
2013-03-05 09:37:00,24.8,19.8,30.08,East,98,3.0,5.0,81,0.00,,,0.00,WeatherCatV1.10B1784,2013-03-05 14:37:00,
2013-03-05 09:42:00,25.0,19.7,30.08,East,79,1.0,6.0,80,0.00,,,0.00,WeatherCatV1.10B1784,2013-03-05 14:42:00,
2013-03-05 09:47:00,25.2,19.9,30.08,East,80,5.0,5.0,80,0.00,,,0.00,WeatherCatV1.10B1784,2013-03-05 14:47:00,
2013-03-05 09:52:00,25.8,20.5,30.08,East,86,4.0,5.0,80,0.00,,,0.00,WeatherCatV1.10B1784,2013-03-05 14:52:00,
2013-03-05 09:57:00,26.0,20.4,30.08,NE,53,0.0,0.0,79,0.00,,,0.00,WeatherCatV1.10B1784,2013-03-05 14:57:00,
2013-03-05 10:02:00,26.6,20.7,30.08,East,90,4.0,7.0,78,0.00,,,0.00,WeatherCatV1.10B1784,2013-03-05 15:02:00,
2013-03-05 10:07:00,26.6,20.7,30.07,NNW,342,3.0,4.0,78,0.00,,,0.00,WeatherCatV1.10B1784,2013-03-05 15:07:00,
2013-03-05 10:12:00,27.2,21.0,30.07,NNE,20,4.0,4.0,77,0.00,,,0.00,WeatherCatV1.10B1784,2013-03-05 15:12:00,
2013-03-05 10:17:00,27.6,21.0,30.07,ENE,71,3.0,5.0,76,0.00,,,0.00,WeatherCatV1.10B1784,2013-03-05 15:17:00,
2013-03-05 10:22:00,28.1,21.8,30.07,ENE,64,1.0,2.0,77,0.00,,,0.00,WeatherCatV1.10B1784,2013-03-05 15:22:00,
2013-03-05 10:27:00,27.9,20.7,30.06,ENE,68,6.0,6.0,74,0.00,,,0.00,WeatherCatV1.10B1784,2013-03-05 15:27:00,
2013-03-05 10:32:00,28.1,20.9,30.06,East,95,0.0,4.0,74,0.00,,,0.00,WeatherCatV1.10B1784,2013-03-05 15:32:00,
2013-03-05 10:37:00,28.6,21.1,30.06,ENE,68,4.0,4.0,73,0.00,,,0.00,WeatherCatV1.10B1784,2013-03-05 15:37:00,
2013-03-05 10:42:00,28.8,20.9,30.06,ESE,113,6.0,6.0,72,0.00,,,0.00,WeatherCatV1.10B1784,2013-03-05 15:42:00,
2013-03-05 10:47:00,29.1,20.9,30.06,ESE,109,2.0,4.0,71,0.00,,,0.00,WeatherCatV1.10B1784,2013-03-05 15:47:00,
2013-03-05 10:52:00,29.3,20.4,30.06,East,85,1.0,4.0,69,0.00,,,0.00,WeatherCatV1.10B1784,2013-03-05 15:52:00,
2013-03-05 10:57:00,29.5,20.9,30.06,NNE,29,2.0,2.0,70,0.00,,,0.00,WeatherCatV1.10B1784,2013-03-05 15:57:00,
2013-03-05 11:02:00,29.6,20.7,30.06,WNW,290,1.0,1.0,69,0.00,,,0.00,WeatherCatV1.10B1784,2013-03-05 16:02:00,
2013-03-05 11:07:00,30.2,21.3,30.06,East,79,6.0,6.0,69,0.00,,,0.00,WeatherCatV1.10B1784,2013-03-05 16:07:00,
2013-03-05 11:12:00,30.5,21.2,30.05,NNE,26,2.0,4.0,68,0.00,,,0.00,WeatherCatV1.10B1784,2013-03-05 16:12:00,
2013-03-05 11:17:00,31.0,21.3,30.05,ENE,67,5.0,5.0,67,0.00,,,0.00,WeatherCatV1.10B1784,2013-03-05 16:17:00,
2013-03-05 11:22:00,31.5,21.1,30.05,East,88,5.0,5.0,65,0.00,,,0.00,WeatherCatV1.10B1784,2013-03-05 16:22:00,
2013-03-05 11:27:00,31.4,20.7,30.05,East,96,1.0,3.0,64,0.00,,,0.00,WeatherCatV1.10B1784,2013-03-05 16:27:00,
2013-03-05 11:32:00,31.9,21.1,30.05,ENE,60,4.0,5.0,64,0.00,,,0.00,WeatherCatV1.10B1784,2013-03-05 16:32:00,
2013-03-05 11:37:00,32.1,20.6,30.05,ENE,64,3.0,5.0,62,0.00,,,0.00,WeatherCatV1.10B1784,2013-03-05 16:37:00,
2013-03-05 11:43:00,32.5,20.6,30.05,ENE,68,2.0,6.0,61,0.00,,,0.00,WeatherCatV1.10B1784,2013-03-05 16:43:00,
2013-03-05 11:48:00,32.5,17.7,30.04,NE,44,2.0,5.0,54,0.00,,,0.00,WeatherCatV1.10B1784,2013-03-05 16:48:00,
2013-03-05 11:53:00,32.7,19.2,30.04,SE,131,5.0,5.0,57,0.00,,,0.00,WeatherCatV1.10B1784,2013-03-05 16:53:00,
2013-03-05 11:58:00,33.3,18.9,30.03,South,187,3.0,4.0,55,0.00,,,0.00,WeatherCatV1.10B1784,2013-03-05 16:58:00,
2013-03-05 12:03:00,33.9,19.9,30.03,North,354,2.0,4.0,56,0.00,,,0.00,WeatherCatV1.10B1784,2013-03-05 17:03:00,
2013-03-05 12:08:00,34.4,20.3,30.03,SSE,155,1.0,5.0,56,0.00,,,0.00,WeatherCatV1.10B1784,2013-03-05 17:08:00,
2013-03-05 12:13:00,34.7,21.0,30.02,ESE,110,3.0,7.0,57,0.00,,,0.00,WeatherCatV1.10B1784,2013-03-05 17:13:00,
2013-03-05 12:18:00,34.7,21.5,30.02,NE,40,1.0,3.0,58,0.00,,,0.00,WeatherCatV1.10B1784,2013-03-05 17:18:00,
2013-03-05 12:23:00,35.4,22.1,30.01,ENE,68,4.0,5.0,58,0.00,,,0.00,WeatherCatV1.10B1784,2013-03-05 17:23:00,
2013-03-05 12:28:00,35.4,20.4,30.01,East,79,1.0,5.0,54,0.00,,,0.00,WeatherCatV1.10B1784,2013-03-05 17:28:00,
2013-03-05 12:33:00,36.0,21.0,30.01,ESE,105,3.0,4.0,54,0.00,,,0.00,WeatherCatV1.10B1784,2013-03-05 17:33:00,
2013-03-05 12:38:00,36.1,21.1,30.00,SSE,161,3.0,8.0,54,0.00,,,0.00,WeatherCatV1.10B1784,2013-03-05 17:38:00,
2013-03-05 12:43:00,36.4,21.4,30.00,NE,43,8.0,8.0,54,0.00,,,0.00,WeatherCatV1.10B1784,2013-03-05 17:43:00,
2013-03-05 12:48:00,36.2,19.8,29.99,NNE,23,6.0,9.0,51,0.00,,,0.00,WeatherCatV1.10B1784,2013-03-05 17:48:00,
2013-03-05 12:53:00,36.2,19.8,29.99,NE,34,8.0,9.0,51,0.00,,,0.00,WeatherCatV1.10B1784,2013-03-05 17:53:00,
2013-03-05 12:58:00,36.9,20.0,29.98,ENE,78,6.0,10.0,50,0.00,,,0.00,WeatherCatV1.10B1784,2013-03-05 17:58:00,
2013-03-05 13:03:00,36.9,19.5,29.98,ENE,75,6.0,7.0,49,0.00,,,0.00,WeatherCatV1.10B1784,2013-03-05 18:03:00,
2013-03-05 13:08:00,37.5,20.6,29.97,SE,124,1.0,7.0,50,0.00,,,0.00,WeatherCatV1.10B1784,2013-03-05 18:08:00,
2013-03-05 13:13:00,37.8,21.3,29.97,ENE,61,7.0,9.0,51,0.00,,,0.00,WeatherCatV1.10B1784,2013-03-05 18:13:00,
2013-03-05 13:18:00,38.5,21.0,29.96,ENE,63,5.0,6.0,49,0.00,,,0.00,WeatherCatV1.10B1784,2013-03-05 18:18:00,
2013-03-05 13:23:00,38.8,20.8,29.96,NE,46,10.0,11.0,48,0.00,,,0.00,WeatherCatV1.10B1784,2013-03-05 18:23:00,
2013-03-05 13:28:00,38.9,20.9,29.95,ESE,110,7.0,8.0,48,0.00,,,0.00,WeatherCatV1.10B1784,2013-03-05 18:28:00,
2013-03-05 13:33:00,39.3,21.3,29.95,NE,51,3.0,6.0,48,0.00,,,0.00,WeatherCatV1.10B1784,2013-03-05 18:33:00,
2013-03-05 13:38:00,39.5,20.5,29.94,East,99,7.0,9.0,46,0.00,,,0.00,WeatherCatV1.10B1784,2013-03-05 18:38:00,
2013-03-05 13:43:00,39.6,17.3,29.94,SE,131,4.0,10.0,40,0.00,,,0.00,WeatherCatV1.10B1784,2013-03-05 18:43:00,
2013-03-05 13:48:00,39.8,18.6,29.94,NE,55,6.0,8.0,42,0.00,,,0.00,WeatherCatV1.10B1784,2013-03-05 18:48:00,
2013-03-05 13:53:00,40.0,18.2,29.93,SE,145,4.0,6.0,41,0.00,,,0.00,WeatherCatV1.10B1784,2013-03-05 18:53:00,
2013-03-05 13:58:00,40.4,19.1,29.93,ENE,64,7.0,7.0,42,0.00,,,0.00,WeatherCatV1.10B1784,2013-03-05 18:58:00,
2013-03-05 14:03:00,40.5,18.7,29.93,ENE,67,8.0,9.0,41,0.00,,,0.00,WeatherCatV1.10B1784,2013-03-05 19:03:00,
2013-03-05 14:08:00,40.5,19.2,29.93,ENE,64,6.0,8.0,42,0.00,,,0.00,WeatherCatV1.10B1784,2013-03-05 19:08:00,
2013-03-05 14:13:00,41.1,18.6,29.92,East,83,6.0,6.0,40,0.00,,,0.00,WeatherCatV1.10B1784,2013-03-05 19:13:00,
2013-03-05 14:18:00,41.4,15.8,29.92,ESE,112,9.0,11.0,35,0.00,,,0.00,WeatherCatV1.10B1784,2013-03-05 19:18:00,
2013-03-05 14:23:00,41.1,15.6,29.92,East,90,6.0,11.0,35,0.00,,,0.00,WeatherCatV1.10B1784,2013-03-05 19:23:00,
2013-03-05 14:28:00,41.7,17.4,29.91,ESE,117,6.0,8.0,37,0.00,,,0.00,WeatherCatV1.10B1784,2013-03-05 19:28:00,
2013-03-05 14:33:00,41.8,16.2,29.91,ESE,113,7.0,13.0,35,0.00,,,0.00,WeatherCatV1.10B1784,2013-03-05 19:33:00,
2013-03-05 14:38:00,42.2,17.2,29.91,ESE,108,3.0,7.0,36,0.00,,,0.00,WeatherCatV1.10B1784,2013-03-05 19:38:00,
2013-03-05 14:43:00,42.8,18.4,29.90,ESE,120,3.0,6.0,37,0.00,,,0.00,WeatherCatV1.10B1784,2013-03-05 19:43:00,
2013-03-05 14:48:00,43.1,18.0,29.90,ESE,107,7.0,9.0,36,0.00,,,0.00,WeatherCatV1.10B1784,2013-03-05 19:48:00,
2013-03-05 14:53:00,42.6,16.9,29.89,ESE,110,4.0,9.0,35,0.00,,,0.00,WeatherCatV1.10B1784,2013-03-05 19:53:00,
2013-03-05 14:58:00,42.6,17.5,29.89,ESE,115,4.0,10.0,36,0.00,,,0.00,WeatherCatV1.10B1784,2013-03-05 19:58:00,
2013-03-05 15:03:00,42.7,18.9,29.89,ESE,120,3.0,4.0,38,0.00,,,0.00,WeatherCatV1.10B1784,2013-03-05 20:03:00,
2013-03-05 15:08:00,43.2,18.7,29.88,East,95,4.0,10.0,37,0.00,,,0.00,WeatherCatV1.10B1784,2013-03-05 20:08:00,
2013-03-05 15:13:00,43.1,18.6,29.88,NE,55,6.0,6.0,37,0.00,,,0.00,WeatherCatV1.10B1784,2013-03-05 20:13:00,
2013-03-05 15:18:00,43.3,18.8,29.88,ESE,117,3.0,6.0,37,0.00,,,0.00,WeatherCatV1.10B1784,2013-03-05 20:18:00,
2013-03-05 15:23:00,43.9,18.7,29.88,NE,53,6.0,7.0,36,0.00,,,0.00,WeatherCatV1.10B1784,2013-03-05 20:23:00,
2013-03-05 15:28:00,43.9,18.0,29.87,SE,124,6.0,11.0,35,0.00,,,0.00,WeatherCatV1.10B1784,2013-03-05 20:28:00,
2013-03-05 15:33:00,43.7,17.2,29.87,ESE,110,4.0,7.0,34,0.00,,,0.00,WeatherCatV1.10B1784,2013-03-05 20:33:00,
2013-03-05 15:38:00,43.8,18.0,29.87,ENE,64,7.0,10.0,35,0.00,,,0.00,WeatherCatV1.10B1784,2013-03-05 20:38:00,
2013-03-05 15:43:00,43.8,17.3,29.86,ENE,71,9.0,12.0,34,0.00,,,0.00,WeatherCatV1.10B1784,2013-03-05 20:43:00,
2013-03-05 15:48:00,43.8,18.0,29.87,ENE,63,8.0,11.0,35,0.00,,,0.00,WeatherCatV1.10B1784,2013-03-05 20:48:00,
2013-03-05 15:53:00,43.9,19.3,29.86,East,83,5.0,14.0,37,0.00,,,0.00,WeatherCatV1.10B1784,2013-03-05 20:53:00,
2013-03-05 15:58:00,44.2,18.3,29.86,NE,50,10.0,12.0,35,0.00,,,0.00,WeatherCatV1.10B1784,2013-03-05 20:58:00,
2013-03-05 16:03:00,43.9,17.4,29.86,East,86,10.0,12.0,34,0.00,,,0.00,WeatherCatV1.10B1784,2013-03-05 21:03:00,
2013-03-05 16:08:00,43.9,17.4,29.86,ESE,108,4.0,10.0,34,0.00,,,0.00,WeatherCatV1.10B1784,2013-03-05 21:08:00,
2013-03-05 16:13:00,44.3,18.4,29.85,ENE,78,7.0,7.0,35,0.00,,,0.00,WeatherCatV1.10B1784,2013-03-05 21:13:00,
2013-03-05 16:18:00,44.3,19.0,29.86,SE,144,6.0,9.0,36,0.00,,,0.00,WeatherCatV1.10B1784,2013-03-05 21:18:00,
2013-03-05 16:23:00,44.3,17.0,29.86,ESE,115,8.0,10.0,33,0.00,,,0.00,WeatherCatV1.10B1784,2013-03-05 21:23:00,
2013-03-05 16:28:00,44.2,17.6,29.86,SE,134,5.0,9.0,34,0.00,,,0.00,WeatherCatV1.10B1784,2013-03-05 21:28:00,
2013-03-05 16:33:00,44.6,18.0,29.86,ESE,114,2.0,6.0,34,0.00,,,0.00,WeatherCatV1.10B1784,2013-03-05 21:33:00,
2013-03-05 16:38:00,44.4,18.5,29.85,ENE,70,5.0,9.0,35,0.00,,,0.00,WeatherCatV1.10B1784,2013-03-05 21:38:00,
2013-03-05 16:43:00,44.0,18.1,29.85,ENE,68,6.0,9.0,35,0.00,,,0.00,WeatherCatV1.10B1784,2013-03-05 21:43:00,
2013-03-05 16:48:00,43.7,17.9,29.85,ENE,63,7.0,11.0,35,0.00,,,0.00,WeatherCatV1.10B1784,2013-03-05 21:48:00,
2013-03-05 16:53:00,43.5,17.0,29.85,East,89,4.0,13.0,34,0.00,,,0.00,WeatherCatV1.10B1784,2013-03-05 21:53:00,
2013-03-05 16:58:00,43.5,18.3,29.85,ENE,71,6.0,8.0,36,0.00,,,0.00,WeatherCatV1.10B1784,2013-03-05 21:58:00,
2013-03-05 17:03:00,43.5,17.7,29.84,ENE,58,4.0,9.0,35,0.00,,,0.00,WeatherCatV1.10B1784,2013-03-05 22:03:00,
2013-03-05 17:08:00,43.3,17.5,29.84,ENE,68,5.0,8.0,35,0.00,,,0.00,WeatherCatV1.10B1784,2013-03-05 22:08:00,
2013-03-05 17:13:00,43.4,17.6,29.83,ENE,68,4.0,9.0,35,0.00,,,0.00,WeatherCatV1.10B1784,2013-03-05 22:13:00,
2013-03-05 17:18:00,43.4,18.2,29.83,ENE,57,8.0,10.0,36,0.00,,,0.00,WeatherCatV1.10B1784,2013-03-05 22:18:00,
2013-03-05 17:23:00,43.3,17.5,29.83,NE,46,4.0,7.0,35,0.00,,,0.00,WeatherCatV1.10B1784,2013-03-05 22:23:00,
2013-03-05 17:28:00,43.3,17.5,29.83,East,82,4.0,8.0,35,0.00,,,0.00,WeatherCatV1.10B1784,2013-03-05 22:28:00,
2013-03-05 17:33:00,43.2,17.4,29.82,East,84,5.0,7.0,35,0.00,,,0.00,WeatherCatV1.10B1784,2013-03-05 22:33:00,
2013-03-05 17:38:00,43.0,17.9,29.82,ENE,65,5.0,6.0,36,0.00,,,0.00,WeatherCatV1.10B1784,2013-03-05 22:38:00,
2013-03-05 17:43:00,42.7,17.6,29.82,NE,56,5.0,9.0,36,0.00,,,0.00,WeatherCatV1.10B1784,2013-03-05 22:43:00,
2013-03-05 17:48:00,42.5,17.4,29.82,ENE,73,2.0,5.0,36,0.00,,,0.00,WeatherCatV1.10B1784,2013-03-05 22:48:00,
2013-03-05 17:53:00,42.3,17.3,29.81,NE,53,4.0,6.0,36,0.00,,,0.00,WeatherCatV1.10B1784,2013-03-05 22:53:00,
2013-03-05 17:58:00,42.0,17.6,29.81,NE,39,6.0,6.0,37,0.00,,,0.00,WeatherCatV1.10B1784,2013-03-05 22:58:00,
2013-03-05 18:03:00,41.8,16.8,29.81,ENE,72,3.0,7.0,36,0.00,,,0.00,WeatherCatV1.10B1784,2013-03-05 23:03:00,
2013-03-05 18:08:00,41.6,16.6,29.80,East,88,5.0,6.0,36,0.00,,,0.00,WeatherCatV1.10B1784,2013-03-05 23:08:00,
2013-03-05 18:13:00,41.4,16.5,29.79,ENE,71,5.0,8.0,36,0.00,,,0.00,WeatherCatV1.10B1784,2013-03-05 23:13:00,
2013-03-05 18:18:00,41.3,16.4,29.79,ENE,71,4.0,8.0,36,0.00,,,0.00,WeatherCatV1.10B1784,2013-03-05 23:18:00,
2013-03-05 18:23:00,41.2,16.9,29.79,East,101,5.0,9.0,37,0.00,,,0.00,WeatherCatV1.10B1784,2013-03-05 23:23:00,
2013-03-05 18:28:00,41.1,16.8,29.80,NW,322,2.0,10.0,37,0.00,,,0.00,WeatherCatV1.10B1784,2013-03-05 23:28:00,
2013-03-05 18:33:00,41.0,16.7,29.80,ESE,105,9.0,11.0,37,0.00,,,0.00,WeatherCatV1.10B1784,2013-03-05 23:33:00,
2013-03-05 18:38:00,40.9,17.3,29.80,East,82,6.0,6.0,38,0.00,,,0.00,WeatherCatV1.10B1784,2013-03-05 23:38:00,
2013-03-05 18:43:00,40.8,17.2,29.80,East,79,3.0,4.0,38,0.00,,,0.00,WeatherCatV1.10B1784,2013-03-05 23:43:00,
2013-03-05 18:48:00,40.6,17.6,29.80,ESE,103,2.0,4.0,39,0.00,,,0.00,WeatherCatV1.10B1784,2013-03-05 23:48:00,
2013-03-05 18:53:00,40.7,17.7,29.80,ENE,61,3.0,10.0,39,0.00,,,0.00,WeatherCatV1.10B1784,2013-03-05 23:53:00,
2013-03-05 18:58:00,40.6,18.2,29.80,ENE,74,7.0,10.0,40,0.00,,,0.00,WeatherCatV1.10B1784,2013-03-05 23:58:00,
2013-03-05 19:03:00,40.6,18.2,29.80,ESE,106,4.0,8.0,40,0.00,,,0.00,WeatherCatV1.10B1784,2013-03-06 00:03:00,
2013-03-05 19:08:00,40.5,18.1,29.80,ENE,77,6.0,9.0,40,0.00,,,0.00,WeatherCatV1.10B1784,2013-03-06 00:08:00,
2013-03-05 19:13:00,40.5,18.7,29.79,ENE,64,2.0,5.0,41,0.00,,,0.00,WeatherCatV1.10B1784,2013-03-06 00:13:00,
2013-03-05 19:18:00,40.4,18.6,29.79,ESE,110,2.0,4.0,41,0.00,,,0.00,WeatherCatV1.10B1784,2013-03-06 00:18:00,
2013-03-05 19:23:00,40.4,18.6,29.79,ENE,70,6.0,8.0,41,0.00,,,0.00,WeatherCatV1.10B1784,2013-03-06 00:23:00,
2013-03-05 19:28:00,40.3,19.1,29.79,SE,145,4.0,8.0,42,0.00,,,0.00,WeatherCatV1.10B1784,2013-03-06 00:28:00,
2013-03-05 19:33:00,40.2,19.0,29.79,ENE,78,4.0,8.0,42,0.00,,,0.00,WeatherCatV1.10B1784,2013-03-06 00:33:00,
2013-03-05 19:38:00,40.2,19.0,29.78,East,84,5.0,10.0,42,0.00,,,0.00,WeatherCatV1.10B1784,2013-03-06 00:38:00,
2013-03-05 19:43:00,40.1,18.9,29.78,ENE,65,3.0,7.0,42,0.00,,,0.00,WeatherCatV1.10B1784,2013-03-06 00:43:00,
2013-03-05 19:48:00,40.0,18.8,29.78,NE,56,7.0,9.0,42,0.00,,,0.00,WeatherCatV1.10B1784,2013-03-06 00:48:00,
2013-03-05 19:53:00,39.9,18.7,29.78,East,79,5.0,7.0,42,0.00,,,0.00,WeatherCatV1.10B1784,2013-03-06 00:53:00,
2013-03-05 19:58:00,39.9,18.7,29.77,ENE,75,11.0,14.0,42,0.00,,,0.00,WeatherCatV1.10B1784,2013-03-06 00:58:00,
2013-03-05 20:03:00,39.8,18.6,29.77,ENE,76,10.0,14.0,42,0.00,,,0.00,WeatherCatV1.10B1784,2013-03-06 01:03:00,
2013-03-05 20:08:00,39.7,19.1,29.77,East,82,8.0,9.0,43,0.00,,,0.00,WeatherCatV1.10B1784,2013-03-06 01:08:00,
2013-03-05 20:13:00,39.5,18.9,29.77,ENE,72,6.0,16.0,43,0.00,,,0.00,WeatherCatV1.10B1784,2013-03-06 01:13:00,
2013-03-05 20:18:00,39.5,19.4,29.76,East,82,6.0,11.0,44,0.00,,,0.00,WeatherCatV1.10B1784,2013-03-06 01:18:00,
2013-03-05 20:23:00,39.3,19.8,29.76,ENE,71,11.0,11.0,45,0.00,,,0.00,WeatherCatV1.10B1784,2013-03-06 01:23:00,
2013-03-05 20:28:00,39.2,19.7,29.76,East,84,6.0,14.0,45,0.00,,,0.00,WeatherCatV1.10B1784,2013-03-06 01:28:00,
2013-03-05 20:33:00,39.1,20.1,29.75,East,91,8.0,13.0,46,0.00,,,0.00,WeatherCatV1.10B1784,2013-03-06 01:33:00,
2013-03-05 20:38:00,39.0,20.5,29.75,ENE,68,11.0,17.0,47,0.00,,,0.00,WeatherCatV1.10B1784,2013-03-06 01:38:00,
2013-03-05 20:43:00,38.9,20.4,29.75,East,98,7.0,17.0,47,0.00,,,0.00,WeatherCatV1.10B1784,2013-03-06 01:43:00,
2013-03-05 20:48:00,38.8,20.8,29.75,East,86,7.0,8.0,48,0.00,,,0.00,WeatherCatV1.10B1784,2013-03-06 01:48:00,
2013-03-05 20:53:00,38.7,20.7,29.74,NNE,27,12.0,14.0,48,0.00,,,0.00,WeatherCatV1.10B1784,2013-03-06 01:53:00,
2013-03-05 20:58:00,38.5,21.0,29.74,ENE,58,8.0,11.0,49,0.00,,,0.00,WeatherCatV1.10B1784,2013-03-06 01:58:00,
2013-03-05 21:03:00,38.4,21.4,29.74,ENE,65,4.0,10.0,50,0.00,,,0.00,WeatherCatV1.10B1784,2013-03-06 02:03:00,
2013-03-05 21:08:00,38.3,21.3,29.74,ENE,65,8.0,13.0,50,0.00,,,0.00,WeatherCatV1.10B1784,2013-03-06 02:08:00,
2013-03-05 21:13:00,38.2,21.7,29.74,East,85,10.0,12.0,51,0.00,,,0.00,WeatherCatV1.10B1784,2013-03-06 02:13:00,
2013-03-05 21:18:00,38.2,21.7,29.73,ESE,106,6.0,13.0,51,0.00,,,0.00,WeatherCatV1.10B1784,2013-03-06 02:18:00,
2013-03-05 21:23:00,38.0,22.0,29.73,NE,51,6.0,15.0,52,0.00,,,0.00,WeatherCatV1.10B1784,2013-03-06 02:23:00,
2013-03-05 21:28:00,37.9,22.3,29.73,NE,56,10.0,12.0,53,0.00,,,0.00,WeatherCatV1.10B1784,2013-03-06 02:28:00,
2013-03-05 21:33:00,37.8,22.7,29.73,ENE,71,8.0,16.0,54,0.00,,,0.00,WeatherCatV1.10B1784,2013-03-06 02:33:00,
2013-03-05 21:38:00,37.7,23.0,29.73,ENE,58,5.0,14.0,55,0.00,,,0.00,WeatherCatV1.10B1784,2013-03-06 02:38:00,
2013-03-05 21:43:00,37.7,23.0,29.73,ENE,71,5.0,12.0,55,0.00,,,0.00,WeatherCatV1.10B1784,2013-03-06 02:43:00,
2013-03-05 21:48:00,37.6,23.3,29.73,ESE,113,5.0,9.0,56,0.00,,,0.00,WeatherCatV1.10B1784,2013-03-06 02:48:00,
2013-03-05 21:53:00,37.6,23.3,29.73,East,89,9.0,12.0,56,0.00,,,0.00,WeatherCatV1.10B1784,2013-03-06 02:53:00,
2013-03-05 21:58:00,37.6,23.8,29.73,ENE,68,4.0,9.0,57,0.00,,,0.00,WeatherCatV1.10B1784,2013-03-06 02:58:00,
2013-03-05 22:03:00,37.6,23.8,29.73,East,89,6.0,10.0,57,0.00,,,0.00,WeatherCatV1.10B1784,2013-03-06 03:03:00,
2013-03-05 22:08:00,37.6,24.2,29.72,NE,53,4.0,8.0,58,0.00,,,0.00,WeatherCatV1.10B1784,2013-03-06 03:08:00,
2013-03-05 22:13:00,37.5,24.1,29.72,SE,134,11.0,16.0,58,0.00,,,0.00,WeatherCatV1.10B1784,2013-03-06 03:13:00,
2013-03-05 22:18:00,37.6,24.2,29.72,ESE,107,5.0,8.0,58,0.00,,,0.00,WeatherCatV1.10B1784,2013-03-06 03:18:00,
2013-03-05 22:23:00,37.6,24.6,29.72,East,82,4.0,8.0,59,0.00,,,0.00,WeatherCatV1.10B1784,2013-03-06 03:23:00,
2013-03-05 22:28:00,37.6,24.6,29.73,ESE,113,6.0,10.0,59,0.00,,,0.00,WeatherCatV1.10B1784,2013-03-06 03:28:00,
2013-03-05 22:33:00,37.6,24.6,29.72,East,86,5.0,10.0,59,0.00,,,0.00,WeatherCatV1.10B1784,2013-03-06 03:33:00,
2013-03-05 22:38:00,37.6,24.6,29.72,ESE,113,5.0,15.0,59,0.00,,,0.00,WeatherCatV1.10B1784,2013-03-06 03:38:00,
2013-03-05 22:43:00,37.6,25.0,29.72,East,80,5.0,10.0,60,0.00,,,0.00,WeatherCatV1.10B1784,2013-03-06 03:43:00,
2013-03-05 22:48:00,37.6,25.0,29.72,ESE,103,3.0,9.0,60,0.00,,,0.00,WeatherCatV1.10B1784,2013-03-06 03:48:00,
2013-03-05 22:53:00,37.6,25.0,29.72,ESE,120,8.0,10.0,60,0.00,,,0.00,WeatherCatV1.10B1784,2013-03-06 03:53:00,
2013-03-05 22:58:00,37.6,25.0,29.72,ENE,61,7.0,7.0,60,0.00,,,0.00,WeatherCatV1.10B1784,2013-03-06 03:58:00,
2013-03-05 23:03:00,37.6,25.0,29.72,ESE,103,2.0,11.0,60,0.00,,,0.00,WeatherCatV1.10B1784,2013-03-06 04:03:00,
2013-03-05 23:08:00,37.7,25.1,29.71,ESE,114,4.0,9.0,60,0.00,,,0.00,WeatherCatV1.10B1784,2013-03-06 04:08:00,
2013-03-05 23:13:00,37.7,25.1,29.71,ESE,115,8.0,12.0,60,0.00,,,0.00,WeatherCatV1.10B1784,2013-03-06 04:13:00,
2013-03-05 23:18:00,37.6,25.0,29.71,ESE,119,7.0,13.0,60,0.00,,,0.00,WeatherCatV1.10B1784,2013-03-06 04:18:00,
2013-03-05 23:23:00,37.6,25.0,29.71,ESE,117,2.0,7.0,60,0.00,,,0.00,WeatherCatV1.10B1784,2013-03-06 04:23:00,
2013-03-05 23:28:00,37.6,25.0,29.71,ESE,114,8.0,9.0,60,0.00,,,0.00,WeatherCatV1.10B1784,2013-03-06 04:28:00,
2013-03-05 23:33:00,37.6,25.0,29.71,East,82,7.0,12.0,60,0.00,,,0.00,WeatherCatV1.10B1784,2013-03-06 04:33:00,
2013-03-05 23:38:00,37.6,25.0,29.71,ESE,108,4.0,11.0,60,0.00,,,0.00,WeatherCatV1.10B1784,2013-03-06 04:38:00,
2013-03-05 23:43:00,37.7,25.1,29.71,ESE,105,9.0,14.0,60,0.00,,,0.00,WeatherCatV1.10B1784,2013-03-06 04:43:00,
2013-03-05 23:48:00,37.6,25.0,29.71,ESE,115,7.0,8.0,60,0.00,,,0.00,WeatherCatV1.10B1784,2013-03-06 04:48:00,
2013-03-05 23:53:00,37.7,25.1,29.70,ESE,110,5.0,7.0,60,0.00,,,0.00,WeatherCatV1.10B1784,2013-03-06 04:53:00,
2013-03-05 23:58:00,37.9,24.9,29.70,SSE,154,7.0,15.0,59,0.00,,,0.00,WeatherCatV1.10B1784,2013-03-06 04:58:00,